Weather in Ratlam

India     23°20′11″N   75°02′35″E
temp.,
°C
wind,
m/s
gust,
m/s
humid.,
%
clouds,
%
prec.,
mm/h
press.,
hPa
HPBL,
m
19 january, tue
tue1923:30+20n12340 0.0 101223
02:30+19n11340 0.0 101223
05:30+16ne34380 0.0 101240
08:30+18ene23410 0.0 101588
11:30+26nnw12280 0.0 1014850
14:30+29w45200 0.0 10111624
17:30+26wnw34240 0.0 101085
20:30+21nnw23300 0.0 101323
20 january, wed
wed2023:30+18ne34380 0.0 101344
02:30+16e33510 0.0 101231
05:30+15ene33570 0.0 101228
08:30+17ene35530 0.0 1015145
11:30+25ene33320 0.0 1015694
14:30+28n22240 0.0 10121780
17:30+26nne33300 0.0 101251
20:30+20ne47380 0.0 101499
21 january, thu
thu2123:30+18ene44400 0.0 101577
02:30+16ene45410 0.0 101490
05:30+15ene44410 0.0 101475
08:30+17ene47350 0.0 1016185
11:30+25e44190 0.0 1016674
14:30+28ne22140 0.0 10121516
17:30+25ne23190 0.0 101224
20:30+19ene44220 0.0 101446
22 january, fri
fri2223:30+18e45240 0.0 101462
02:30+16e34260 0.0 101449
05:30+15e34280 0.0 101336
08:30+17e35300 0.0 1015113
11:30+26se33180 0.0 1015672
14:30+29sse11150 0.0 10111323
17:30+26ese11210 0.0 101024
20:30+20sse23260 0.0 101323
23 january, sat
sat2323:30+18sse11260 0.0 101223
02:30+18sse12270 0.0 101223
05:30+16sse22290 0.0 101123
08:30+19s22310 0.0 101368
11:30+28wsw56190 0.0 1012893
14:30+30wsw67150 0.0 10091500
17:30+26w59230 0.0 1008249
20:30+21wsw34330 0.0 101033